Wheeler AAF, HI

1:35 AM HST on March 28, 2017 (GMT -1000)
Wheeler Army Air Field

Weather History for PHHI - February, 2014

Change the Weather History Date:

Thursday, February 13, 2014

  Actual Average Record
Temperature  
Mean Temperature 70 °F -  
Max Temperature 78 °F 74 °F 80 °F (2016)
Min Temperature 63 °F 61 °F 59 °F (1997)
Cooling Degree Days 6    
Growing Degree Days 20 (Base 50)    
Moisture  
Dew Point 66 °F    
Average Humidity 86    
Maximum Humidity 95    
Minimum Humidity 60    
Precipitation  
Precipitation 0.09 in - - ()
Sea Level Pressure  
Sea Level Pressure 29.95 in    
Wind  
Wind Speed 5 mph (NW)    
Max Wind Speed 14 mph    
Max Gust Speed 17 mph    
Visibility 10 miles    
Events Rain    
Averages and records for this station are not official NWS values.
T = Trace of Precipitation, MM = Missing Value Source: NWS Daily Summary

Daily Weather History Graph

Daily Weather History Graph

Search for Another Location

Airport or City:

Trip Planner

Search our weather history database for the weather conditions in past years. The results will help you decide how hot, cold, wet, or windy it might be!

Date:

Astronomy

Feb. 13, 2014 Rise Set
Actual Time 7:03 AM HST 6:29 PM HST
Civil Twilight 6:41 AM HST 6:51 PM HST
Nautical Twilight 6:14 AM HST 7:18 PM HST
Astronomical Twilight 5:48 AM HST 7:44 PM HST
Moon 5:46 PM HST (2/13) 6:03 AM HST (2/13)
Length of Visible Light 12h 10m
Length of Day
11h 25m
Waxing Gibbous, 99% of the Moon is Illuminated
Feb 13
Waxing Gibbous
Feb 14
Full
Feb 22
Last Quarter
Feb 28
New
Mar 8
First Quarter

Hourly Weather History & Observations

Time (HST) Temp. Dew Point Humidity Pressure Visibility Wind Dir Wind Speed Gust Speed Precip Events Conditions
12:58 AM 65.7 °F 63.3 °F 92% 29.93 in 10.0 mi Variable 1.2 mph - N/A   Clear
1:58 AM 64.8 °F 62.4 °F 92% 29.91 in 10.0 mi SSW 2.3 mph - N/A   Partly Cloudy
2:58 AM 64.2 °F 62.6 °F 94% 29.92 in 10.0 mi NW 3.5 mph - N/A   Partly Cloudy
3:58 AM 65.1 °F 63.1 °F 93% 29.91 in 10.0 mi NNE 2.3 mph - N/A   Partly Cloudy
4:58 AM 63.9 °F 62.1 °F 94% 29.92 in 9.0 mi Calm Calm - N/A   Partly Cloudy
5:58 AM 64.2 °F 62.8 °F 95% 29.94 in 10.0 mi NNW 3.5 mph - N/A   Mostly Cloudy
6:58 AM 67.1 °F 64.8 °F 92% 29.95 in 10.0 mi NNE 2.3 mph - N/A   Overcast
7:39 AM 66.2 °F 64.4 °F 94% 29.97 in 10.0 mi NNE 1.2 mph - N/A   Light Drizzle
7:57 AM 68.0 °F 64.4 °F 88% 29.98 in 10.0 mi NNW 1.2 mph - N/A   Partly Cloudy
7:58 AM 68.0 °F 64.4 °F 88% 29.96 in 10.0 mi Calm Calm - 0.00 in   Partly Cloudy
7:59 AM 68.0 °F 64.4 °F 88% 29.98 in 10.0 mi WNW 2.3 mph - N/A Rain Light Rain
8:09 AM 68.0 °F 64.4 °F 88% 29.98 in 10.0 mi NW 2.3 mph - N/A   Clear
8:58 AM 71.1 °F 66.0 °F 84% 29.97 in 10.0 mi Calm Calm - 0.00 in   Light Drizzle
9:54 AM 75.2 °F 64.4 °F 69% 30.00 in 10.0 mi ESE 2.3 mph - N/A   Clear
9:58 AM 75.9 °F 63.7 °F 66% 29.98 in 10.0 mi SSE 1.2 mph - 0.00 in   Clear
10:58 AM 77.4 °F 62.6 °F 60% 29.96 in 10.0 mi Variable 3.5 mph - N/A   Partly Cloudy
11:58 AM 75.4 °F 64.8 °F 69% 29.95 in 10.0 mi NW 8.1 mph - N/A   Mostly Cloudy
12:58 PM 78.1 °F 64.2 °F 62% 29.92 in 10.0 mi Variable 3.5 mph - N/A   Partly Cloudy
1:58 PM 76.1 °F 66.2 °F 71% 29.89 in 10.0 mi NNW 10.4 mph - N/A   Mostly Cloudy
2:43 PM 78.8 °F 66.2 °F 65% 29.90 in 10.0 mi Variable 5.8 mph - N/A   Mostly Cloudy
2:58 PM 77.0 °F 68.0 °F 74% 29.87 in 10.0 mi WNW 9.2 mph - N/A   Mostly Cloudy
3:08 PM 77.0 °F 68.0 °F 74% 29.89 in 10.0 mi NW 9.2 mph - N/A   Mostly Cloudy
3:23 PM 77.0 °F 68.0 °F 74% 29.89 in 10.0 mi NW 13.8 mph 17.3 mph N/A   Mostly Cloudy
3:28 PM 77.0 °F 69.8 °F 78% 29.89 in 10.0 mi NW 9.2 mph - N/A   Mostly Cloudy
3:58 PM 73.4 °F 68.0 °F 83% 29.88 in 10.0 mi West 10.4 mph - N/A   Mostly Cloudy
4:58 PM 72.1 °F 68.0 °F 87% 29.89 in 10.0 mi West 6.9 mph - N/A   Overcast
5:53 PM 71.6 °F 66.2 °F 83% 29.94 in 10.0 mi North 11.5 mph - N/A   Mostly Cloudy
5:58 PM 71.4 °F 66.4 °F 84% 29.92 in 10.0 mi North 11.5 mph - N/A   Overcast
6:18 PM 71.6 °F 66.2 °F 83% 29.96 in 10.0 mi NNW 9.2 mph - N/A   Overcast
6:28 PM 69.8 °F 66.2 °F 88% 29.96 in 10.0 mi NNW 8.1 mph - N/A   Mostly Cloudy
6:58 PM 70.0 °F 66.7 °F 89% 29.93 in 9.0 mi NNW 8.1 mph - N/A   Partly Cloudy
6:59 PM 69.8 °F 66.2 °F 88% 29.95 in 9.0 mi NNW 8.1 mph - N/A   Light Drizzle
7:14 PM 69.8 °F 66.2 °F 88% 29.95 in 9.0 mi North 9.2 mph - N/A   Scattered Clouds
7:20 PM 69.8 °F 68.0 °F 94% 29.95 in 10.0 mi NNW 8.1 mph - N/A Rain Light Rain
7:22 PM 69.8 °F 68.0 °F 94% 29.96 in 10.0 mi NW 8.1 mph - N/A   Scattered Clouds
7:25 PM 69.8 °F 68.0 °F 94% 29.97 in 10.0 mi NW 8.1 mph - N/A Rain Light Rain
7:30 PM 69.8 °F 68.0 °F 94% 29.97 in 10.0 mi WNW 8.1 mph - N/A   Light Drizzle
7:58 PM 69.6 °F 67.5 °F 93% 29.96 in 6.0 mi NNW 6.9 mph - 0.01 in Rain Light Rain
8:13 PM 69.8 °F 68.0 °F 94% 29.98 in 10.0 mi NW 6.9 mph - N/A   Light Drizzle
8:27 PM 69.8 °F 68.0 °F 94% 29.98 in 10.0 mi NNW 6.9 mph - N/A   Scattered Clouds
8:35 PM 69.8 °F 68.0 °F 94% 29.98 in 10.0 mi NNW 6.9 mph - N/A   Light Drizzle
8:45 PM 69.8 °F 68.0 °F 94% 29.98 in 7.0 mi NNW 9.2 mph - N/A Rain Heavy Rain
8:58 PM 69.6 °F 67.8 °F 94% 29.96 in 3.0 mi NNW 6.9 mph - 0.02 in Rain Rain
9:48 PM 69.8 °F 68.0 °F 94% 30.00 in 9.0 mi NW 6.9 mph - N/A   Light Drizzle
9:58 PM 69.4 °F 68.0 °F 95% 29.96 in 9.0 mi NW 5.8 mph - 0.05 in Rain Light Rain
10:18 PM 69.8 °F 68.0 °F 94% 30.00 in 10.0 mi WNW 6.9 mph - N/A   Clear
10:58 PM 68.9 °F 67.5 °F 95% 29.98 in 10.0 mi NW 8.1 mph - 0.01 in   Partly Cloudy
11:48 PM 68.0 °F 66.2 °F 94% 30.01 in 10.0 mi NW 8.1 mph - N/A   Mostly Cloudy
11:53 PM 68.0 °F 66.2 °F 94% 30.01 in 10.0 mi NNW 8.1 mph - N/A   Mostly Cloudy
11:58 PM 68.5 °F 66.7 °F 94% 29.99 in 10.0 mi NNW 9.2 mph - N/A   Mostly Cloudy